| time (UTC) | temp F | wind direction | speed MPH | gust MPH | rain 1hr in | rain 24hr in | rain mn in | humidity % | barometer mb |
| 20260831112654 | 58 | 336 | 0.0 | 2.0 | 0.00 | 0.00 | 0.00 | 1 | 1028.5 |
| 20260831111653 | 59 | 336 | 1.0 | 2.0 | 0.00 | 0.00 | 0.00 | 3 | 1028.5 |
| 20260831110651 | 60 | 336 | 0.0 | 1.0 | 0.00 | 0.00 | 0.00 | 16 | 1028.5 |
| 20260831105650 | 60 | 336 | 0.0 | 1.0 | 0.00 | 0.00 | 0.00 | 24 | 1028.5 |
| 20260831104648 | 61 | 336 | 0.0 | 3.0 | 0.00 | 0.00 | 0.00 | 30 | 1028.5 |
| 20260831103647 | 62 | 336 | 0.0 | 8.0 | 0.00 | 0.00 | 0.00 | 34 | 1028.5 |
| 20260831102645 | 62 | 336 | 2.0 | 8.0 | 0.00 | 0.00 | 0.00 | 36 | 1028.5 |
| 20260831101612 | 62 | 339 | 3.0 | 9.0 | 0.00 | 0.00 | 0.00 | 34 | 1028.5 |
| 20260831100611 | 62 | 344 | 4.0 | 9.0 | 0.00 | 0.00 | 0.00 | 29 | 1028.5 |
| 20260831095610 | 62 | 349 | 3.0 | 8.0 | 0.00 | 0.00 | 0.00 | 21 | 1028.1 |
| 20260831094609 | 62 | 335 | 4.0 | 8.0 | 0.00 | 0.00 | 0.00 | 16 | 1028.1 |
| 20260831093608 | 61 | 339 | 4.0 | 8.0 | 0.00 | 0.00 | 0.00 | 9 | 1028.1 |
| 20260831092606 | 61 | 5 | 3.0 | 7.0 | 0.00 | 0.00 | 0.00 | 5 | 1028.1 |
| 20260831091605 | 62 | 11 | 1.0 | 3.0 | 0.00 | 0.00 | 0.00 | 5 | 1028.1 |
| 20260831090603 | 62 | 357 | 2.0 | 3.0 | 0.00 | 0.00 | 0.00 | 1 | 1028.1 |
| 20260831085602 | 62 | 353 | 1.0 | 3.0 | 0.00 | 0.00 | 0.00 | 1 | 1028.1 |
| 20260831084601 | 62 | 40 | 1.0 | 6.0 | 0.00 | 0.00 | 0.00 | 1 | 1028.1 |
| 20260831083559 | 63 | 330 | 1.0 | 6.0 | 0.00 | 0.00 | 0.00 | 1 | 1028.1 |
| 20260831082557 | 63 | 353 | 1.0 | 5.0 | 0.00 | 0.00 | 0.00 | 7 | 1028.1 |
| 20260831081555 | 64 | 45 | 2.0 | 5.0 | 0.00 | 0.00 | 0.00 | 17 | 1028.1 |
| 20260831080522 | 64 | 67 | 2.0 | 7.0 | 0.00 | 0.00 | 0.00 | 23 | 1028.1 |
| 20260831075521 | 64 | 49 | 1.0 | 7.0 | 0.00 | 0.00 | 0.00 | 33 | 1028.1 |
| 20260831074520 | 65 | 89 | 1.0 | 7.0 | 0.00 | 0.00 | 0.00 | 42 | 1027.8 |
| 20260831073518 | 65 | 64 | 0.0 | 7.0 | 0.00 | 0.00 | 0.00 | 48 | 1027.8 |
| 20260831072517 | 66 | 76 | 1.0 | 7.0 | 0.00 | 0.00 | 0.00 | 50 | 1027.8 |
| 20260831071515 | 66 | 356 | 4.0 | 8.0 | 0.00 | 0.00 | 0.00 | 54 | 1027.8 |
| 20260831070513 | 67 | 0 | 4.0 | 8.0 | 0.00 | 0.00 | 0.00 | 55 | 1027.4 |
| 20260831065512 | 67 | 350 | 3.0 | 8.0 | 0.00 | 0.00 | 0.00 | 56 | 1027.4 |
| 20260831064511 | 67 | 75 | 4.0 | 9.0 | 0.00 | 0.00 | 0.00 | 57 | 1027.4 |
| 20260831063509 | 68 | 44 | 5.0 | 9.0 | 0.00 | 0.00 | 0.00 | 58 | 1027.4 |
| 20260831062507 | 68 | 43 | 5.0 | 10.0 | 0.00 | 0.00 | 0.00 | 58 | 1027.4 |
| 20260831061506 | 68 | 47 | 4.0 | 10.0 | 0.00 | 0.00 | 0.00 | 57 | 1027.4 |
| 20260831060504 | 68 | 50 | 2.0 | 8.0 | 0.00 | 0.00 | 0.00 | 56 | 1027.4 |
| 20260831055503 | 68 | 37 | 2.0 | 8.0 | 0.00 | 0.00 | 0.00 | 55 | 1027.4 |
| 20260831054430 | 69 | 75 | 4.0 | 10.0 | 0.00 | 0.00 | 0.00 | 56 | 1027.4 |
| 20260831053428 | 69 | 21 | 6.0 | 11.0 | 0.00 | 0.00 | 0.00 | 56 | 1027.4 |
| 20260831052427 | 69 | 15 | 3.0 | 11.0 | 0.00 | 0.00 | 0.00 | 55 | 1027.5 |
| 20260831051426 | 70 | 54 | 4.0 | 10.0 | 0.00 | 0.00 | 0.00 | 56 | 1027.5 |
| 20260831050424 | 70 | 342 | 2.0 | 10.0 | 0.00 | 0.00 | 0.00 | 56 | 1027.5 |
| 20260831045351 | 70 | 85 | 4.0 | 8.0 | 0.00 | 0.00 | 0.00 | 57 | 1027.5 |
| 20260831044350 | 71 | 102 | 3.0 | 7.0 | 0.00 | 0.00 | 0.00 | 56 | 1027.5 |
| 20260831043348 | 71 | 102 | 4.0 | 8.0 | 0.00 | 0.00 | 0.00 | 57 | 1027.8 |
| 20260831042347 | 71 | 83 | 2.0 | 9.0 | 0.00 | 0.00 | 0.00 | 57 | 1027.8 |
| 20260831041346 | 71 | 55 | 3.0 | 9.0 | 0.00 | 0.00 | 0.00 | 57 | 1027.8 |
| 20260831040344 | 71 | 34 | 6.0 | 9.0 | 0.00 | 0.00 | 0.00 | 57 | 1027.8 |
| 20260831035342 | 71 | 20 | 3.0 | 9.0 | 0.00 | 0.00 | 0.00 | 57 | 1027.8 |
| 20260831034341 | 71 | 67 | 4.0 | 8.0 | 0.00 | 0.00 | 0.00 | 56 | 1027.8 |
| 20260831033340 | 70 | 50 | 5.0 | 9.0 | 0.00 | 0.00 | 0.00 | 56 | 1027.8 |
| 20260831032338 | 70 | 48 | 5.0 | 9.0 | 0.00 | 0.00 | 0.00 | 56 | 1028.1 |
| 20260831031336 | 70 | 65 | 4.0 | 8.0 | 0.00 | 0.00 | 0.00 | 55 | 1028.1 |
| 20260831030335 | 70 | 99 | 3.0 | 8.0 | 0.00 | 0.00 | 0.00 | 53 | 1028.1 |
| 20260831025333 | 69 | 95 | 3.0 | 7.0 | 0.00 | 0.00 | 0.00 | 49 | 1028.5 |
| 20260831024332 | 68 | 108 | 3.0 | 7.0 | 0.00 | 0.00 | 0.00 | 47 | 1028.5 |
| 20260831023331 | 69 | 97 | 3.0 | 9.0 | 0.00 | 0.00 | 0.00 | 48 | 1028.8 |
| 20260831022330 | 69 | 97 | 2.0 | 6.0 | 0.00 | 0.00 | 0.00 | 48 | 1028.8 |
| 20260831021328 | 69 | 98 | 3.0 | 7.0 | 0.00 | 0.00 | 0.00 | 50 | 1029.2 |
| 20260831020327 | 70 | 113 | 2.0 | 6.0 | 0.00 | 0.00 | 0.00 | 54 | 1029.2 |
| 20260831015254 | 70 | 110 | 2.0 | 4.0 | 0.00 | 0.00 | 0.00 | 56 | 1029.5 |
| 20260831014253 | 71 | 103 | 2.0 | 4.0 | 0.00 | 0.00 | 0.00 | 56 | 1029.5 |
| 20260831013251 | 72 | 133 | 1.0 | 3.0 | 0.00 | 0.00 | 0.00 | 55 | 1029.9 |
| 20260831012250 | 70 | 134 | 1.0 | 3.0 | 0.00 | 0.00 | 0.00 | 56 | 1029.8 |
| 20260831011249 | 68 | 139 | 1.0 | 3.0 | 0.00 | 0.00 | 0.00 | 56 | 1030.2 |
| 20260831010248 | 69 | 145 | 1.0 | 3.0 | 0.00 | 0.00 | 0.00 | 56 | 1030.2 |
| 20260831005246 | 70 | 138 | 2.0 | 2.0 | 0.00 | 0.00 | 0.00 | 56 | 1030.2 |
| 20260831004244 | 69 | 145 | 1.0 | 3.0 | 0.00 | 0.00 | 0.00 | 56 | 1030.5 |
| 20260831003212 | 68 | 131 | 2.0 | 3.0 | 0.00 | 0.00 | 0.00 | 55 | 1030.5 |
| 20260831002210 | 67 | 185 | 1.0 | 3.0 | 0.00 | 0.00 | 0.00 | 53 | 1030.5 |
| 20260831001209 | 68 | 84 | 1.0 | 3.0 | 0.00 | 0.00 | 0.00 | 54 | 1030.5 |
| 20260831000207 | 69 | 75 | 1.0 | 2.0 | 0.00 | 0.00 | 0.00 | 55 | 1030.5 |
| 20260830235206 | 68 | 74 | 1.0 | 2.0 | 0.00 | 0.00 | 0.00 | 54 | 1030.5 |
| 20260830234205 | 67 | 74 | 0.0 | 2.0 | 0.00 | 0.00 | 0.00 | 50 | 1030.5 |
| 20260830233203 | 66 | 74 | 1.0 | 2.0 | 0.00 | 0.00 | 0.00 | 47 | 1030.5 |
| 20260830232202 | 65 | 74 | 2.0 | 2.0 | 0.00 | 0.00 | 0.00 | 43 | 1030.5 |
| 20260830231129 | 64 | 74 | 1.0 | 2.0 | 0.00 | 0.00 | 0.00 | 34 | 1030.5 |
| 20260830230128 | 62 | 74 | 1.0 | 2.0 | 0.00 | 0.00 | 0.00 | 6 | 1030.5 |
| 20260830225055 | 61 | 74 | 1.0 | 2.0 | 0.00 | 0.00 | 0.00 | 1 | 1030.5 |
| 20260830224053 | 61 | 74 | 1.0 | 2.0 | 0.00 | 0.00 | 0.00 | 1 | 1030.8 |
| 20260830223052 | 60 | 74 | 1.0 | 2.0 | 0.00 | 0.00 | 0.00 | 1 | 1030.8 |
| 20260830222050 | 58 | 74 | 1.0 | 2.0 | 0.00 | 0.00 | 0.00 | 1 | 1030.5 |
| 20260830221048 | 57 | 74 | 1.0 | 2.0 | 0.00 | 0.00 | 0.00 | 1 | 1030.5 |
| 20260830220046 | 56 | 74 | 1.0 | 1.0 | 0.00 | 0.00 | 0.00 | 1 | 1030.5 |
| 20260830214943 | 54 | 74 | 1.0 | 1.0 | 0.00 | 0.00 | 0.00 | 1 | 1030.4 |
| 20260830213910 | 53 | 74 | 0.0 | 1.0 | 0.00 | 0.00 | 0.00 | 1 | 1030.1 |
| 20260830212908 | 51 | 74 | 1.0 | 1.0 | 0.00 | 0.00 | 0.00 | 1 | 1030.1 |
| 20260830211906 | 51 | 74 | 0.0 | 1.0 | 0.00 | 0.00 | 0.00 | 1 | 1030.1 |
| 20260830210905 | 50 | 74 | 0.0 | 1.0 | 0.00 | 0.00 | 0.00 | 1 | 1030.1 |
| 20260830205905 | 49 | 74 | 0.0 | 1.0 | 0.00 | 0.00 | 0.00 | 1 | 1030.1 |
| 20260830204902 | 49 | 74 | 1.0 | 1.0 | 0.00 | 0.00 | 0.00 | 1 | 1030.1 |
| 20260830203901 | 48 | 74 | 0.0 | 1.0 | 0.00 | 0.00 | 0.00 | 1 | 1029.8 |
| 20260830202758 | 48 | 74 | 1.0 | 2.0 | 0.00 | 0.00 | 0.00 | 1 | 1029.8 |
| 20260830201757 | 49 | 74 | 1.0 | 2.0 | 0.00 | 0.00 | 0.00 | 1 | 1029.8 |
| 20260830200755 | 49 | 74 | 1.0 | 1.0 | 0.00 | 0.00 | 0.00 | 1 | 1029.8 |
| 20260830195754 | 49 | 74 | 0.0 | 2.0 | 0.00 | 0.00 | 0.00 | 1 | 1029.4 |
| 20260830194752 | 49 | 74 | 1.0 | 2.0 | 0.00 | 0.00 | 0.00 | 1 | 1029.4 |
| 20260830193750 | 50 | 74 | 0.0 | 0.0 | 0.00 | 0.00 | 0.00 | 1 | 1029.4 |
| 20260830192749 | 50 | 74 | 0.0 | 0.0 | 0.00 | 0.00 | 0.00 | 1 | 1029.4 |
| 20260830191748 | 50 | 74 | 0.0 | 0.0 | 0.00 | 0.00 | 0.00 | 1 | 1029.1 |
| 20260830190747 | 50 | 74 | 0.0 | 0.0 | 0.00 | 0.00 | 0.00 | 1 | 1029.1 |
| 20260830185746 | 50 | 74 | 0.0 | 1.0 | 0.00 | 0.00 | 0.00 | 1 | 1029.1 |
| 20260830184744 | 49 | 74 | 0.0 | 1.0 | 0.00 | 0.00 | 0.00 | 1 | 1029.1 |
| 20260830183742 | 49 | 74 | 0.0 | 1.0 | 0.00 | 0.00 | 0.00 | 1 | 1029.1 |
| 20260830182741 | 49 | 74 | 0.0 | 1.0 | 0.00 | 0.00 | 0.00 | 1 | 1028.8 |
| 20260830181739 | 50 | 74 | 0.0 | 1.0 | 0.00 | 0.00 | 0.00 | 1 | 1029.1 |
| 20260830180738 | 49 | 74 | 1.0 | 1.0 | 0.00 | 0.00 | 0.00 | 1 | 1029.1 |
| 20260830175736 | 50 | 74 | 0.0 | 1.0 | 0.00 | 0.00 | 0.00 | 1 | 1029.1 |
| 20260830174735 | 50 | 74 | 0.0 | 3.0 | 0.00 | 0.00 | 0.01 | 1 | 1029.1 |
| 20260830173734 | 50 | 74 | 2.0 | 3.0 | 0.00 | 0.00 | 0.00 | 1 | 1029.1 |
| 20260830172701 | 50 | 74 | 0.0 | 2.0 | 0.00 | 0.00 | 0.00 | 1 | 1029.5 |
| 20260830171700 | 50 | 74 | 0.0 | 2.0 | 0.00 | 0.00 | 0.00 | 1 | 1029.5 |
| 20260830170628 | 50 | 74 | 1.0 | 1.0 | 0.00 | 0.00 | 0.00 | 1 | 1029.1 |
| 20260830165626 | 50 | 74 | 0.0 | 0.0 | 0.00 | 0.00 | 0.00 | 1 | 1029.5 |
| 20260830164625 | 50 | 74 | 0.0 | 0.0 | 0.00 | 0.00 | 0.00 | 1 | 1029.5 |
| 20260830163623 | 51 | 74 | 0.0 | 0.0 | 0.00 | 0.00 | 0.00 | 1 | 1029.5 |
| 20260830162550 | 51 | 74 | 0.0 | 0.0 | 0.00 | 0.00 | 0.00 | 1 | 1029.5 |
| 20260830161549 | 51 | 74 | 0.0 | 0.0 | 0.00 | 0.00 | 0.00 | 1 | 1029.5 |
| 20260830160548 | 51 | 74 | 0.0 | 1.0 | 0.00 | 0.00 | 0.00 | 1 | 1029.8 |
| 20260830155546 | 51 | 74 | 0.0 | 1.0 | 0.00 | 0.00 | 0.00 | 1 | 1029.8 |
| 20260830154545 | 51 | 74 | 0.0 | 1.0 | 0.00 | 0.00 | 0.00 | 1 | 1029.8 |
| 20260830153543 | 51 | 74 | 0.0 | 1.0 | 0.00 | 0.00 | 0.00 | 1 | 1029.8 |
| 20260830152542 | 52 | 74 | 0.0 | 1.0 | 0.00 | 0.00 | 0.00 | 1 | 1029.8 |
| 20260830151541 | 52 | 74 | 1.0 | 2.0 | 0.00 | 0.00 | 0.00 | 1 | 1029.8 |
| 20260830150539 | 52 | 74 | 1.0 | 2.0 | 0.00 | 0.00 | 0.00 | 1 | 1029.8 |
| 20260830145435 | 52 | 74 | 1.0 | 1.0 | 0.00 | 0.00 | 0.00 | 1 | 1029.8 |
| 20260830144434 | 52 | 74 | 0.0 | 1.0 | 0.00 | 0.00 | 0.00 | 1 | 1030.2 |
| 20260830143432 | 52 | 77 | 0.0 | 0.0 | 0.00 | 0.00 | 0.00 | 1 | 1030.2 |
| 20260830142431 | 53 | 77 | 0.0 | 0.0 | 0.00 | 0.00 | 0.00 | 1 | 1030.2 |
| 20260830141429 | 53 | 77 | 0.0 | 0.0 | 0.00 | 0.00 | 0.00 | 1 | 1030.2 |
| 20260830140428 | 53 | 77 | 0.0 | 2.0 | 0.00 | 0.00 | 0.00 | 1 | 1029.8 |
| 20260830135427 | 53 | 77 | 0.0 | 2.0 | 0.00 | 0.00 | 0.00 | 1 | 1029.8 |
| 20260830134425 | 54 | 77 | 1.0 | 2.0 | 0.00 | 0.00 | 0.00 | 1 | 1030.1 |
| 20260830133423 | 54 | 77 | 1.0 | 2.0 | 0.00 | 0.00 | 0.00 | 1 | 1029.8 |
| 20260830132422 | 55 | 77 | 1.0 | 1.0 | 0.00 | 0.00 | 0.00 | 1 | 1029.8 |
| 20260830131350 | 55 | 77 | 0.0 | 1.0 | 0.00 | 0.00 | 0.00 | 1 | 1030.2 |
| 20260830130348 | 55 | 77 | 0.0 | 0.0 | 0.00 | 0.00 | 0.00 | 1 | 1030.2 |
| 20260830125347 | 55 | 77 | 0.0 | 1.0 | 0.00 | 0.00 | 0.00 | 1 | 1030.2 |
| 20260830124243 | 55 | 77 | 0.0 | 3.0 | 0.00 | 0.00 | 0.00 | 1 | 1030.2 |
| 20260830123242 | 54 | 77 | 1.0 | 3.0 | 0.00 | 0.00 | 0.00 | 1 | 1030.1 |
| 20260830122240 | 54 | 8 | 0.0 | 1.0 | 0.00 | 0.00 | 0.00 | 1 | 1029.8 |
| 20260830121239 | 54 | 8 | 1.0 | 1.0 | 0.00 | 0.00 | 0.00 | 1 | 1029.8 |
| 20260830120206 | 54 | 8 | 1.0 | 1.0 | 0.00 | 0.00 | 0.00 | 1 | 1029.8 |
| 20260830115205 | 55 | 8 | 1.0 | 1.0 | 0.00 | 0.00 | 0.00 | 1 | 1029.8 |
| 20260830114204 | 55 | 8 | 0.0 | 1.0 | 0.00 | 0.00 | 0.00 | 1 | 1029.8 |